Simultaneous Nadir Overpasses (SNOs) Predictions

Prediction of SNOs between GOES-17 and NOAA-19 Satellite Orbit:

Table of predicted SNOs for the next 14.0 days since TLE Epoch: 5/29/2020
Index Date Time (GOES-17) GOES-17 Lat,Lon NOAA-19 Lat,Lon Distance(km) Time Diff (sec)
1 05/30/2020 15:14:00 0.02,-137.20 0.69,-140.13 334.45 80
2 05/31/2020 14:59:39 0.02,-137.20 0.01,-137.28 9.51 80
3 06/01/2020 14:47:58 0.02,-137.19 -0.61,-134.42 316.11 80
4 06/04/2020 03:11:48 -0.01,-137.17 -0.54,-139.43 258.07 80
5 06/05/2020 02:57:27 -0.01,-137.16 0.14,-136.58 66.39 80
6 06/06/2020 02:48:27 -0.00,-137.14 0.81,-133.73 390.70 80
7 06/07/2020 15:18:18 0.00,-137.13 1.02,-141.50 499.15 80
8 06/08/2020 15:06:38 -0.00,-137.12 0.33,-138.65 175.04 80
9 06/09/2020 14:57:36 0.00,-137.10 -0.29,-135.79 149.09 80
10 06/10/2020 14:45:56 0.00,-137.08 -0.97,-132.94 473.12 80
11 06/12/2020 03:16:06 -0.00,-137.05 -0.87,-140.80 427.45 80




NCC Satellite Simultaneous Nadir Overpasses (SNOs) Prediction Service
